Tracking 26544 objects as of 9-Dec-2022
HD Live streaming from Space Station
objects crossing your sky now

STARLINK-4677

Track STARLINK-4677 now!
10-day predictions
STARLINK-4677 is classified as:


NORAD ID: 53600
Int'l Code: 2022-104N
Perigee: 545.6 km
Apogee: 548.3 km
Inclination: 53.2 °
Period: 95.4 minutes
Semi major axis: 6917 km
RCS: Unknown
Launch date: August 28, 2022
Source: United States (US)
Launch site: AIR FORCE EASTERN TEST RANGE (AFETR)
aabbcc
Your satellite tracking list
Your tracking list is empty




NASA's NSSDC Master Catalog

Two Line Element Set (TLE):
1 53600U 22104N   22342.23763098 -.00001499  00000-0 -76120-4 0  9999
2 53600  53.2190 174.5442 0001957  53.1215 306.9956 15.08830731 16351
Source of the keplerian elements: AFSPC